Hourly Weather Bolshie Novosyady

Today, 28 July, Wednesday

Time Temperature Precipitation Wind Pressure Humidity
00:00 +20°C° 0 mm 1 mps 743 mmHg 96%
01:00 +19°C° 0 mm 1 mps 743 mmHg 96%
02:00 +19°C° 0 mm 1 mps 742 mmHg 95%
03:00 +19°C° 0 mm 1 mps 742 mmHg 95%
04:00 +19°C° 0 mm 1 mps 742 mmHg 95%
05:00 +19°C° 0 mm 1 mps 742 mmHg 95%
06:00 +19°C° 0 mm 2 mps 743 mmHg 90%
07:00 +21°C° 0 mm 2 mps 743 mmHg 86%
08:00 +23°C° 0 mm 2 mps 743 mmHg 82%
09:00 +25°C° 0 mm 2 mps 743 mmHg 75%
10:00 +26°C° 0 mm 3 mps 743 mmHg 67%
11:00 +28°C° 0 mm 3 mps 743 mmHg 60%
12:00 +28°C° 0.1 mm 3 mps 742 mmHg 58%
13:00 +28°C° 0.1 mm 4 mps 742 mmHg 55%
14:00 +29°C° 0 mm 4 mps 742 mmHg 53%
15:00 +28°C° 0.1 mm 3 mps 742 mmHg 55%
16:00 +28°C° 0.1 mm 3 mps 742 mmHg 58%
17:00 +28°C° 0.1 mm 3 mps 742 mmHg 61%
18:00 +26°C° 0 mm 2 mps 742 mmHg 65%
19:00 +25°C° 0 mm 2 mps 742 mmHg 69%
20:00 +23°C° 0 mm 1 mps 741 mmHg 74%
21:00 +23°C° 0 mm 1 mps 741 mmHg 73%
22:00 +22°C° 0 mm 1 mps 741 mmHg 73%
23:00 +22°C° 0 mm 1 mps 741 mmHg 72%

Tomorrow, 29 July, Thursday

Time Temperature Precipitation Wind Pressure Humidity
00:00 +22°C° 0 mm 1 mps 741 mmHg 75%
01:00 +21°C° 0 mm 1 mps 741 mmHg 77%
02:00 +19°C° 0 mm 2 mps 741 mmHg 80%
03:00 +19°C° 0.4 mm 2 mps 741 mmHg 85%
04:00 +19°C° 0.4 mm 1 mps 741 mmHg 90%
05:00 +19°C° 0.4 mm 1 mps 741 mmHg 95%
06:00 +20°C° 0.2 mm 1 mps 740 mmHg 92%
07:00 +21°C° 0.2 mm 1 mps 740 mmHg 89%
08:00 +22°C° 0.2 mm 1 mps 740 mmHg 87%
09:00 +21°C° 0.2 mm 2 mps 740 mmHg 86%
10:00 +21°C° 0.2 mm 2 mps 740 mmHg 86%
11:00 +21°C° 0.2 mm 3 mps 740 mmHg 86%
12:00 +22°C° 0.6 mm 3 mps 740 mmHg 81%
13:00 +23°C° 0.6 mm 4 mps 740 mmHg 76%
14:00 +25°C° 0.6 mm 4 mps 740 mmHg 71%
15:00 +25°C° 0.1 mm 4 mps 740 mmHg 69%
16:00 +25°C° 0.1 mm 4 mps 740 mmHg 68%
17:00 +25°C° 0.1 mm 4 mps 740 mmHg 66%
18:00 +22°C° 0 mm 3 mps 740 mmHg 70%
19:00 +21°C° 0 mm 3 mps 740 mmHg 74%
20:00 +20°C° 0 mm 2 mps 740 mmHg 78%
21:00 +20°C° 0 mm 2 mps 740 mmHg 79%
22:00 +20°C° 0 mm 2 mps 740 mmHg 80%
23:00 +19°C° 0 mm 2 mps 740 mmHg 81%

Day after tomorrow, 30 July, Friday

Time Temperature Precipitation Wind Pressure Humidity
00:00 +18°C° 0 mm 2 mps 740 mmHg 84%
01:00 +17°C° 0 mm 2 mps 740 mmHg 88%
02:00 +16°C° 0 mm 2 mps 740 mmHg 91%
03:00 +16°C° 0 mm 2 mps 740 mmHg 92%
04:00 +16°C° 0 mm 2 mps 740 mmHg 92%
05:00 +16°C° 0 mm 2 mps 740 mmHg 92%
06:00 +17°C° 0.1 mm 3 mps 740 mmHg 86%
07:00 +18°C° 0.1 mm 4 mps 740 mmHg 81%
08:00 +19°C° 0.1 mm 5 mps 740 mmHg 75%
09:00 +20°C° 0 mm 5 mps 740 mmHg 65%
10:00 +22°C° 0 mm 6 mps 740 mmHg 55%
11:00 +23°C° 0 mm 6 mps 740 mmHg 45%
12:00 +23°C° 0 mm 6 mps 740 mmHg 48%
13:00 +23°C° 0 mm 6 mps 740 mmHg 50%
14:00 +23°C° 0 mm 6 mps 740 mmHg 53%
15:00 +22°C° 0 mm 6 mps 739 mmHg 56%
16:00 +22°C° 0 mm 5 mps 739 mmHg 59%
17:00 +21°C° 0 mm 4 mps 739 mmHg 61%
18:00 +20°C° 0 mm 4 mps 739 mmHg 62%
19:00 +20°C° 0 mm 4 mps 739 mmHg 63%
20:00 +19°C° 0 mm 4 mps 739 mmHg 64%
21:00 +18°C° 0 mm 3 mps 739 mmHg 68%
22:00 +17°C° 0 mm 3 mps 739 mmHg 73%
23:00 +14°C° 0 mm 3 mps 739 mmHg 77%

31 July, Saturday

Time Temperature Precipitation Wind Pressure Humidity
00:00 +14°C° 0 mm 3 mps 739 mmHg 79%
01:00 +13°C° 0 mm 3 mps 739 mmHg 82%
02:00 +13°C° 0 mm 3 mps 739 mmHg 84%
03:00 +13°C° 0 mm 3 mps 739 mmHg 85%
04:00 +12°C° 0 mm 3 mps 739 mmHg 87%
05:00 +12°C° 0 mm 3 mps 739 mmHg 88%
06:00 +14°C° 0 mm 3 mps 740 mmHg 82%
07:00 +17°C° 0 mm 3 mps 740 mmHg 75%
08:00 +19°C° 0 mm 4 mps 740 mmHg 69%
09:00 +20°C° 0 mm 4 mps 740 mmHg 63%
10:00 +22°C° 0 mm 4 mps 740 mmHg 57%
11:00 +23°C° 0 mm 4 mps 740 mmHg 51%
12:00 +25°C° 0 mm 4 mps 740 mmHg 50%
13:00 +25°C° 0 mm 4 mps 740 mmHg 49%
14:00 +26°C° 0 mm 4 mps 740 mmHg 49%
15:00 +26°C° 0 mm 3 mps 739 mmHg 52%
16:00 +26°C° 0 mm 3 mps 739 mmHg 55%
17:00 +26°C° 0 mm 3 mps 739 mmHg 58%
18:00 +25°C° 0.1 mm 3 mps 738 mmHg 65%
19:00 +22°C° 0.1 mm 3 mps 738 mmHg 71%
20:00 +21°C° 0.1 mm 3 mps 738 mmHg 77%
21:00 +20°C° 0.1 mm 3 mps 738 mmHg 82%
22:00 +19°C° 0.1 mm 4 mps 738 mmHg 86%
23:00 +18°C° 0.1 mm 4 mps 739 mmHg 91%

1 August, Sunday

Time Temperature Precipitation Wind Pressure Humidity
00:00 +17°C° 0.1 mm 4 mps 738 mmHg 93%
01:00 +17°C° 0.1 mm 3 mps 738 mmHg 95%
02:00 +17°C° 0.1 mm 3 mps 738 mmHg 96%
03:00 +16°C° 0 mm 3 mps 738 mmHg 96%
04:00 +16°C° 0 mm 3 mps 738 mmHg 96%
05:00 +15°C° 0 mm 2 mps 739 mmHg 96%
06:00 +16°C° 0 mm 3 mps 739 mmHg 89%
07:00 +18°C° 0 mm 4 mps 739 mmHg 82%
08:00 +19°C° 0 mm 4 mps 740 mmHg 75%
09:00 +20°C° 0 mm 5 mps 740 mmHg 68%
10:00 +21°C° 0 mm 5 mps 740 mmHg 61%
11:00 +23°C° 0 mm 5 mps 740 mmHg 54%
12:00 +23°C° 0 mm 5 mps 740 mmHg 52%
13:00 +25°C° 0 mm 5 mps 740 mmHg 51%
14:00 +26°C° 0 mm 5 mps 740 mmHg 49%
15:00 +25°C° 0 mm 5 mps 740 mmHg 53%
16:00 +23°C° 0 mm 4 mps 740 mmHg 58%
17:00 +22°C° 0 mm 4 mps 740 mmHg 62%
18:00 +21°C° 0 mm 3 mps 740 mmHg 68%
19:00 +20°C° 0 mm 2 mps 740 mmHg 73%
20:00 +19°C° 0 mm 1 mps 739 mmHg 78%
21:00 +19°C° 0 mm 1 mps 739 mmHg 80%
22:00 +18°C° 0 mm 1 mps 739 mmHg 81%
23:00 +18°C° 0 mm 1 mps 740 mmHg 82%

2 August, Monday

Time Temperature Precipitation Wind Pressure Humidity
00:00 +18°C° 0.1 mm 1 mps 739 mmHg 82%
01:00 +18°C° 0.1 mm 1 mps 739 mmHg 82%
02:00 +18°C° 0.1 mm 1 mps 739 mmHg 83%
03:00 +16°C° 1.8 mm 1 mps 738 mmHg 88%
04:00 +16°C° 1.8 mm 1 mps 738 mmHg 93%
05:00 +16°C° 1.8 mm 2 mps 737 mmHg 98%
06:00 +16°C° 1 mm 2 mps 737 mmHg 98%
07:00 +16°C° 1 mm 3 mps 736 mmHg 98%
08:00 +16°C° 1 mm 3 mps 736 mmHg 97%
09:00 +16°C° 2 mm 3 mps 735 mmHg 97%
10:00 +16°C° 2 mm 3 mps 735 mmHg 98%
11:00 +14°C° 2 mm 3 mps 735 mmHg 98%
12:00 +14°C° 1.3 mm 4 mps 735 mmHg 96%
13:00 +14°C° 1.3 mm 5 mps 736 mmHg 95%
14:00 +13°C° 1.3 mm 6 mps 736 mmHg 94%
15:00 +14°C° 0.5 mm 5 mps 737 mmHg 92%
16:00 +15°C° 0.5 mm 5 mps 737 mmHg 91%
17:00 +15°C° 0.5 mm 4 mps 738 mmHg 89%
18:00 +16°C° 0 mm 3 mps 738 mmHg 90%
19:00 +14°C° 0 mm 3 mps 738 mmHg 91%
20:00 +15°C° 0 mm 2 mps 738 mmHg 92%
21:00 +14°C° 0.1 mm 3 mps 738 mmHg 94%
22:00 +13°C° 0.1 mm 3 mps 738 mmHg 95%
23:00 +13°C° 0.1 mm 3 mps 739 mmHg 96%
Show more

We Need Your Consent

Meteoprog and our Service Providers may store and access personal data such as cookies, device identifiers or other similar technologies on your device and process such data to personalise content and ads, as well as provide social media features and to analyse the traffic.

  • Store and/or access information on your device

    Cookies, device identifiers or other information can be stored or accessed on your device for the purposes indicated above.

  • Personalised ads and content, ad and content measurement, audience insights, and products development

    Ads and content can be personalised based on a profile. More data can be added to better personalise ads and content. Ad and content performance can be measured. Insights about the audience who saw the ads and content can be derived. Such data can be used to develop or improve user’s experience, systems and software.

By clicking ‘I Agree’ you will allow the use of indicated cookies, device identifiers, web beacons or other similar technologies. Your settings can be changed in the browser on your device.

For certain purposes, legitimate interests may be relied on, rather than consent. You can read more about this in our Privacy and Cookie Policy.